GFSSW_925_thetae_000.txt.gz
Theta_e
319 319 317 313 310 311 312 312 313 315 316 316 317 317 316 315 316 315 313 311 309 309 310 312 313 311 310 311 311 308 311 312 313 313 312 309 309 308 306 305 305 304 305 304 308
318 317 314 311 311 311 311 311 310 312 315 316 317 317 316 315 316 313 311 310 309 309 310 311 310 308 308 311 311 310 310 312 310 310 311 309 308 308 309 307 305 304 303 306 309
318 315 311 311 311 311 310 309 308 311 314 316 317 317 316 315 312 312 311 310 309 309 310 311 310 309 311 309 311 311 311 310 311 309 308 308 308 307 306 308 305 307 305 304 308
317 311 310 311 311 310 308 307 307 312 314 316 317 316 316 314 314 312 311 311 310 310 310 310 309 312 311 311 309 311 309 309 310 310 310 309 308 308 304 310 308 304 303 302 304
315 311 311 310 309 307 306 307 308 312 314 317 316 316 315 311 312 311 313 316 313 310 309 309 310 311 314 310 308 308 308 307 306 306 306 307 307 306 306 306 305 302 301 300 300
314 311 311 308 305 305 306 307 308 311 314 317 315 316 315 313 311 311 314 316 311 309 307 308 309 309 310 309 309 308 307 306 306 307 306 308 307 305 306 305 304 304 303 302 300
312 310 309 306 304 305 306 308 308 311 314 316 315 316 312 314 311 313 316 313 309 308 307 308 308 311 309 310 307 307 307 306 309 309 308 303 308 306 305 304 304 304 305 305 303
312 310 307 303 303 304 306 308 309 311 314 313 315 315 314 312 311 316 316 313 311 309 308 307 308 307 308 306 307 309 308 310 310 308 310 308 314 312 310 309 310 307 304 304 306
313 309 304 303 302 304 306 307 310 310 313 312 315 313 314 312 315 315 314 309 309 309 307 305 306 305 306 308 309 307 312 310 310 310 309 312 314 312 310 308 309 309 306 306 305
313 307 303 302 301 305 305 308 310 311 311 314 313 311 313 314 314 314 311 308 307 306 308 306 304 307 306 309 316 313 310 310 311 310 309 309 311 311 312 310 312 311 306 306 306
311 305 302 300 301 308 307 308 310 308 310 313 311 313 312 313 312 313 309 306 307 307 310 307 309 311 310 310 310 309 310 310 312 311 309 310 312 313 313 313 312 307 311 308 307
309 305 300 300 304 308 309 314 313 311 313 311 312 311 312 311 310 310 308 310 311 311 309 309 310 311 309 309 310 310 310 311 312 310 311 310 312 311 311 311 310 309 307 304 304
308 303 299 300 307 309 311 311 311 310 312 309 311 313 312 307 308 308 305 307 308 310 310 312 308 310 310 311 312 311 311 311 310 311 311 308 309 307 306 307 307 306 304 304 303
307 301 299 301 305 309 311 309 310 309 306 309 315 312 308 306 309 305 304 308 311 312 310 308 309 311 311 311 310 313 310 309 309 310 306 307 309 306 307 307 307 305 304 303 301
307 297 298 303 301 310 309 308 310 305 320 311 315 308 308 311 309 310 304 306 310 310 309 306 310 310 310 309 310 311 307 308 308 304 305 307 308 309 306 307 308 300 297 297 298
304 296 299 304 303 308 306 311 306 312 320 309 313 311 308 307 309 307 307 305 304 306 305 305 304 307 308 308 307 307 306 305 305 304 309 306 306 307 306 307 301 297 296 298 298
297 296 303 304 305 307 307 305 309 317 310 308 312 310 309 308 310 308 309 304 309 310 310 308 308 308 307 305 304 307 305 308 303 302 307 303 301 301 303 305 300 296 297 296 298
296 297 305 306 307 307 308 302 311 314 309 309 312 309 307 307 308 307 306 301 306 308 308 309 304 306 303 305 308 305 307 305 307 301 299 298 301 302 296 296 295 295 295 297 298
297 303 306 307 307 309 298 303 312 306 304 312 306 304 310 310 305 302 305 306 299 300 307 307 306 304 303 303 302 301 307 302 299 296 298 299 299 297 295 294 294 294 295 296 297
301 305 305 307 309 310 299 304 305 300 312 312 306 303 306 310 304 305 304 302 301 297 299 302 303 302 300 299 301 294 294 298 296 294 295 294 292 292 293 294 294 294 294 293 293
305 298 306 310 310 305 301 300 302 307 310 311 309 305 308 307 304 306 302 297 296 295 294 297 299 298 293 294 292 292 293 292 292 293 291 291 291 293 293 294 293 294 292 292 293
305 296 308 311 306 304 305 304 309 311 306 306 307 308 304 302 302 304 305 297 295 295 292 294 293 294 291 292 292 291 291 292 293 292 291 293 293 294 293 293 293 292 291 291 291
303 301 308 311 304 304 309 311 308 306 306 306 305 302 299 299 300 301 299 294 293 292 292 293 294 291 292 292 290 291 291 292 292 293 294 294 292 293 292 292 290 290 290 290 290
303 302 306 308 305 305 308 307 310 303 304 301 299 296 296 297 296 297 296 294 293 293 295 295 295 295 290 291 291 292 292 292 293 294 293 293 292 292 290 289 289 290 290 290 290
303 305 304 312 308 308 307 305 307 305 303 298 296 297 297 296 295 295 294 293 292 293 294 292 292 292 291 291 292 292 293 293 293 292 293 292 290 288 289 289 289 289 290 290 290
302 303 303 305 305 308 308 306 305 303 303 301 299 295 294 295 295 295 293 292 293 292 292 292 292 292 292 292 292 292 292 291 291 290 287 288 289 289 289 289 289 290 290 290 290
300 299 303 303 303 306 306 306 306 304 300 297 296 294 294 294 292 292 292 292 292 293 292 292 293 287 286 291 291 286 289 288 288 287 287 288 288 289 289 290 290 290 290 290 291

GFSSW_925_thetae_003.txt.gz
Theta_e
315 311 311 312 312 309 307 308 307 311 314 316 317 316 315 314 313 311 310 310 309 309 309 311 313 310 310 311 310 307 313 312 313 312 313 309 310 307 306 306 305 305 305 306 307
314 311 311 312 312 308 307 307 307 310 313 315 316 316 315 315 312 311 310 309 309 309 310 311 310 308 308 309 310 310 311 312 310 309 311 309 308 308 309 307 306 305 304 306 306
313 311 311 311 311 308 306 307 308 309 312 314 316 316 315 315 311 311 311 311 310 310 310 310 310 309 311 309 310 310 312 310 310 309 309 309 307 307 307 310 308 309 307 304 306
314 311 311 311 310 308 307 307 308 309 311 313 313 316 315 313 313 311 314 317 315 311 310 309 309 312 311 312 307 312 309 309 309 309 309 309 307 307 306 310 307 305 303 301 302
314 311 310 309 308 307 307 307 308 309 311 313 313 316 314 309 311 311 313 317 313 310 308 308 310 311 314 311 308 308 308 307 306 306 306 305 307 307 306 306 304 303 303 305 305
314 310 309 307 307 307 308 308 308 309 311 313 313 316 313 314 311 311 315 315 311 309 307 307 308 308 311 309 309 307 306 306 305 306 305 307 307 306 307 304 304 306 309 306 305
312 310 308 305 306 306 307 309 308 309 311 314 314 316 311 314 311 312 316 312 310 308 306 307 307 310 309 311 306 305 307 306 310 307 309 305 308 306 306 305 310 308 306 305 304
312 310 307 304 305 306 307 309 310 310 311 312 315 315 313 312 312 316 313 313 309 308 307 306 307 306 307 306 306 308 308 313 311 308 310 311 314 311 308 309 309 307 306 304 304
312 310 306 303 304 304 307 309 311 309 312 312 314 313 314 314 315 314 313 309 308 307 305 305 305 305 306 308 310 309 313 312 310 307 308 312 313 311 310 308 308 308 306 304 303
313 310 305 302 303 304 306 309 310 310 310 314 313 311 313 313 313 312 310 307 307 305 307 306 304 307 306 311 314 314 311 310 310 309 308 310 311 311 307 306 308 305 304 303 301
313 309 303 302 302 304 306 307 307 307 308 312 311 311 312 313 311 310 308 306 306 306 309 306 305 312 311 309 309 309 309 310 310 309 310 311 311 308 305 306 306 304 304 302 299
313 309 302 301 302 305 306 313 311 309 313 310 312 311 312 311 309 309 308 311 308 310 308 309 307 310 308 308 310 310 310 311 311 310 310 309 308 306 302 304 303 301 303 299 299
312 308 300 300 304 306 308 309 310 310 310 308 310 312 312 307 308 308 305 307 309 312 310 311 309 308 310 310 311 310 310 310 310 309 307 306 303 303 304 304 300 298 299 297 298
312 306 299 300 304 307 310 307 310 309 309 311 313 311 307 306 308 304 303 308 310 312 309 308 308 310 309 310 308 312 308 308 307 303 303 303 302 305 305 304 299 295 295 296 296
311 305 298 300 301 309 306 308 310 304 320 312 313 308 306 308 307 309 305 306 309 307 303 300 309 308 309 308 308 310 307 306 304 304 303 303 305 305 302 300 298 295 295 295 297
311 303 297 303 303 307 306 311 305 314 321 311 313 310 309 305 307 306 305 303 304 307 305 304 303 306 307 308 305 305 302 303 304 303 308 304 299 299 303 299 295 294 294 294 295
311 301 297 302 304 307 309 303 313 318 313 312 310 310 307 306 308 306 305 305 306 301 307 306 307 306 304 304 303 298 303 302 302 302 304 298 296 297 297 299 293 293 293 293 293
311 298 301 303 306 306 306 304 313 315 314 309 311 309 308 305 307 304 301 301 301 306 306 306 301 305 302 305 303 298 303 300 300 299 296 296 298 301 293 293 293 293 293 293 293
310 299 303 305 306 308 298 303 313 310 308 309 307 304 305 310 303 300 303 303 298 300 304 304 303 300 297 299 299 297 294 299 300 286 293 297 297 295 293 293 293 293 292 293 293
301 301 302 306 307 306 299 305 304 304 309 311 309 305 302 310 306 301 299 301 298 296 297 301 299 298 299 297 292 292 293 295 294 288 291 292 291 292 292 292 293 292 292 292 291
300 295 303 309 309 304 301 300 302 302 310 310 308 306 304 307 302 301 297 297 296 295 295 295 296 296 292 291 289 292 291 291 291 292 291 290 291 291 292 292 291 291 291 290 290
303 297 306 310 307 303 304 301 306 310 306 307 306 306 305 303 302 301 303 299 293 293 291 292 293 291 290 290 290 290 290 290 291 290 291 291 291 292 291 291 291 289 289 290 290
304 300 308 309 308 304 305 308 308 308 307 306 305 304 299 301 301 301 299 293 292 291 291 292 293 289 291 291 290 290 290 291 291 292 292 292 291 291 291 290 289 289 289 290 290
303 303 307 309 306 304 304 307 309 304 305 303 300 296 296 297 295 298 296 293 293 291 294 292 292 292 289 290 290 290 290 291 291 292 291 291 291 291 290 288 288 289 289 290 290
303 305 306 311 309 307 306 307 308 307 303 299 297 298 299 298 295 296 295 293 292 293 293 293 293 293 293 293 291 290 291 291 292 292 292 291 291 289 288 288 289 289 290 289 287
304 304 304 306 306 309 308 307 307 305 304 303 300 297 297 298 298 296 293 293 294 291 292 291 292 291 291 291 291 292 292 291 291 291 289 288 288 288 288 289 289 289 287 286 286
302 300 304 306 306 309 310 308 307 305 303 303 299 298 296 296 293 293 292 292 292 293 292 292 292 289 288 289 289 288 289 290 288 286 286 287 288 288 289 290 288 285 285 285 282

GFSSW_925_thetae_006.txt.gz
Theta_e
311 311 312 311 310 307 306 306 308 308 312 315 315 315 314 312 312 312 311 310 310 310 310 310 312 311 312 317 316 315 320 320 319 318 319 315 315 314 311 313 312 311 312 312 309
313 312 312 311 310 308 306 307 307 308 311 313 313 316 315 312 312 312 310 311 310 310 310 312 315 313 316 315 317 318 320 319 316 316 317 317 315 314 314 316 316 314 314 311 310
315 312 311 311 310 309 307 307 308 308 310 312 313 316 315 314 315 313 312 316 316 311 310 310 311 315 318 314 315 316 320 315 315 314 314 315 315 312 314 316 314 313 312 312 312
316 311 311 310 310 310 309 309 308 308 309 312 313 316 313 313 317 311 314 316 314 311 310 311 315 318 318 318 313 317 315 314 314 313 313 314 312 314 312 314 312 311 312 314 311
317 311 311 309 309 310 311 310 309 308 310 312 313 315 315 316 314 312 314 315 312 310 309 312 315 316 318 317 315 315 315 312 311 311 311 310 313 311 312 312 312 313 313 312 307
316 312 310 308 309 310 311 311 310 308 310 312 313 316 314 318 312 311 316 313 312 309 310 311 313 312 316 315 315 313 312 313 310 310 309 312 312 310 312 312 312 312 311 307 305
316 312 310 308 308 310 312 312 311 309 310 312 314 315 317 316 311 315 313 311 310 309 311 308 309 313 314 316 311 310 313 315 313 312 310 310 313 312 313 312 310 312 308 305 304
317 312 310 307 308 309 312 312 311 310 310 313 315 315 317 312 312 315 312 312 308 308 308 306 307 310 311 310 312 313 314 314 314 313 309 313 313 314 312 309 310 309 306 304 303
318 312 310 306 306 307 309 314 312 309 311 315 314 315 317 314 315 313 311 308 307 307 306 305 308 310 312 317 317 317 316 314 312 313 312 313 315 313 310 308 309 307 304 302 302
317 312 310 305 304 306 308 314 312 310 311 314 314 316 315 316 313 311 309 307 309 308 310 313 312 315 316 315 316 318 317 314 313 312 313 314 315 312 309 308 306 304 302 301 301
317 311 309 302 302 305 307 311 311 315 310 315 314 314 313 314 311 309 307 308 309 313 314 313 310 317 314 312 313 314 315 315 311 312 313 312 312 310 307 305 303 302 300 299 300
316 311 308 301 302 304 305 313 311 308 315 311 313 313 313 311 311 310 308 312 313 314 315 311 308 313 311 311 313 313 312 310 312 312 310 310 309 307 306 301 300 300 298 298 298
317 311 306 300 303 305 305 308 310 311 313 311 311 314 313 309 310 311 309 310 313 313 314 309 306 310 311 312 311 309 311 313 312 309 308 307 306 306 305 301 298 298 298 297 297
318 312 304 300 303 306 309 306 311 309 317 316 313 314 308 308 311 306 304 309 312 312 310 307 310 311 311 311 309 310 309 308 306 305 305 305 304 306 307 300 297 297 297 296 296
318 313 302 299 301 308 306 308 310 305 333 314 314 308 308 309 309 310 305 308 311 308 305 306 309 309 311 309 309 312 304 304 303 304 305 304 305 308 307 300 296 297 296 296 295
318 316 302 302 303 306 305 311 305 320 328 316 314 313 312 307 309 310 308 307 306 308 308 307 306 308 310 308 305 301 302 303 304 305 306 303 300 302 301 296 295 296 295 294 294
318 316 302 299 304 305 309 305 323 324 316 316 312 312 310 311 309 309 307 308 307 304 306 308 309 306 304 306 305 301 304 303 305 308 306 301 298 299 296 295 294 294 294 293 294
318 315 302 301 304 305 307 314 326 322 320 310 311 310 312 308 309 307 305 307 305 309 309 307 306 309 304 301 300 303 304 300 300 302 302 299 299 301 295 295 295 294 293 293 293
317 308 300 302 305 307 306 314 325 318 314 310 311 313 308 310 307 305 304 304 306 306 306 305 305 300 297 299 300 303 301 299 297 297 299 298 298 298 295 294 294 293 292 292 292
310 302 300 304 306 304 305 313 311 311 310 310 318 315 317 312 311 305 303 304 303 300 300 304 302 300 297 297 295 295 296 298 298 295 296 296 295 295 294 294 293 292 292 291 292
305 300 301 306 308 310 305 306 305 304 310 311 313 314 311 311 310 307 303 301 301 297 300 298 299 298 295 295 296 294 294 293 292 293 295 294 295 294 293 293 292 292 291 291 292
301 303 305 309 311 310 308 304 303 306 307 309 309 310 311 311 307 304 304 303 299 296 298 295 296 296 294 293 292 293 295 292 292 292 292 293 293 294 293 293 292 291 291 292 292
305 303 308 308 310 308 307 308 307 310 309 309 309 309 307 307 308 306 304 296 295 295 295 294 294 297 294 293 292 292 292 292 292 292 293 293 294 294 294 292 291 290 291 292 291
304 305 309 309 310 309 312 310 309 309 309 308 307 304 300 302 300 301 301 295 294 293 294 294 293 295 296 295 292 291 291 291 292 293 293 294 294 294 292 291 290 291 291 290 289
306 307 306 312 309 311 311 313 313 312 308 305 302 303 303 303 301 301 299 295 295 294 295 293 293 293 293 293 293 293 291 291 291 291 291 292 292 292 291 290 290 291 290 288 289
315 307 305 308 313 310 310 311 310 311 307 306 305 302 300 306 304 301 298 297 297 293 294 293 293 292 293 292 292 292 292 292 292 292 292 293 294 291 290 290 290 290 287 288 286
307 302 307 317 312 312 316 313 314 310 307 307 303 301 300 303 300 297 298 298 295 294 294 293 292 293 296 291 291 292 292 292 291 291 290 289 290 289 290 290 289 287 287 285 283

GFSSW_925_thetae_009.txt.gz
Theta_e
313 311 310 310 307 307 306 307 307 308 309 313 313 315 314 312 314 315 314 312 313 310 310 313 314 315 316 320 319 319 323 322 320 320 320 318 318 318 316 315 316 315 315 315 314
316 312 311 310 309 308 308 308 308 308 308 312 313 315 313 313 317 315 313 314 316 314 313 314 317 317 320 319 320 321 323 321 319 318 319 318 317 317 316 316 317 315 315 314 312
318 312 311 310 310 310 309 309 309 309 308 311 313 315 315 313 318 316 314 315 314 313 311 312 314 318 320 319 319 320 320 318 318 317 317 316 316 315 315 317 315 314 314 314 309
319 313 312 310 310 311 310 310 310 309 309 311 313 314 314 315 321 314 314 315 313 311 312 315 317 319 320 320 318 318 318 317 317 316 315 315 314 315 314 315 313 313 313 309 308
320 314 312 311 310 311 311 311 311 311 310 311 314 316 315 319 317 312 315 314 313 312 313 315 317 317 319 318 318 318 318 315 314 314 314 313 314 314 315 315 311 313 309 308 307
321 315 312 311 310 311 312 313 314 312 310 312 315 316 318 320 312 313 314 312 311 312 314 315 315 315 318 318 317 317 316 315 314 314 313 314 313 312 315 313 310 310 308 307 305
321 316 312 310 309 310 313 313 315 313 310 314 315 316 319 318 311 315 312 311 310 310 314 311 311 315 317 318 315 314 316 317 315 314 313 313 314 314 314 311 310 310 307 305 304
321 317 312 310 308 309 313 316 316 313 311 316 315 317 319 312 313 315 312 313 309 309 310 308 310 313 315 315 316 316 317 318 316 314 313 313 314 314 314 310 311 309 306 305 304
321 318 312 310 307 309 312 317 317 310 312 315 317 318 318 314 317 314 313 310 310 310 309 307 311 314 315 318 317 319 319 318 316 314 313 313 314 315 314 310 310 306 304 303 303
320 317 312 308 305 308 312 319 314 311 313 316 316 320 316 318 316 312 310 308 312 313 315 316 316 315 318 314 315 314 314 316 316 314 314 314 314 312 311 309 308 304 302 301 301
320 316 310 306 304 306 310 314 318 320 314 317 317 317 316 316 312 312 309 311 313 314 318 317 315 316 317 313 312 314 315 315 314 313 312 310 310 310 308 306 305 302 300 299 299
320 318 309 304 303 305 309 313 312 311 315 314 315 316 315 313 314 313 310 313 313 317 318 318 320 315 312 313 315 314 312 311 311 313 311 309 308 309 307 303 303 300 299 298 297
319 318 309 301 304 308 309 309 309 312 316 316 314 317 316 312 313 313 311 312 314 317 317 315 316 310 312 314 312 312 310 312 311 310 309 308 308 308 303 301 300 299 299 298 296
320 319 309 301 307 307 311 305 311 311 319 319 316 317 311 311 314 309 308 310 316 315 312 310 310 313 313 311 310 311 308 308 308 308 307 306 306 309 305 303 299 299 298 297 296
319 318 313 300 306 310 307 306 310 310 330 315 317 309 311 312 312 312 307 310 313 314 310 312 307 309 308 310 309 310 304 306 307 308 307 307 306 308 309 306 299 297 296 295 295
319 318 316 304 303 306 305 310 308 321 327 319 317 317 315 311 312 312 311 308 309 308 308 308 308 310 311 310 307 303 305 305 306 306 308 307 305 307 306 300 297 296 295 295 294
318 318 316 301 308 305 307 311 322 324 319 320 317 315 315 317 315 313 313 312 313 314 315 310 311 309 306 309 308 305 305 306 312 313 314 304 302 303 299 297 296 295 294 294 294
317 317 314 306 303 305 313 315 325 324 324 314 315 313 316 315 316 311 311 314 310 310 309 310 312 310 306 307 305 304 303 304 307 309 308 303 301 302 298 296 296 295 294 294 293
317 312 310 308 302 306 308 319 319 322 320 316 314 318 321 312 310 310 311 314 310 309 310 309 307 303 299 301 302 306 303 301 301 302 300 302 301 299 297 296 296 294 294 293 292
313 309 313 308 304 309 307 317 319 317 313 313 322 321 322 321 315 313 315 310 307 306 305 307 306 305 298 298 297 298 299 299 299 301 303 303 302 301 297 295 294 293 293 292 292
310 310 309 306 309 308 311 314 315 315 312 315 319 321 320 318 317 317 317 310 306 303 302 304 303 302 299 298 300 296 296 295 296 298 298 301 302 296 295 294 293 293 292 292 292
306 316 308 309 310 309 312 314 311 310 308 313 312 316 318 319 319 316 317 313 305 301 302 301 302 301 300 296 294 295 296 296 296 298 295 296 297 297 296 294 293 292 292 292 292
307 309 307 309 314 314 311 310 309 311 310 311 311 311 314 314 316 314 314 300 302 301 301 297 298 300 302 295 294 294 294 295 296 294 297 298 298 295 295 296 293 292 292 292 291
308 313 310 310 311 315 316 315 313 310 311 312 314 314 313 311 312 314 308 298 298 299 295 297 297 300 308 307 294 294 294 294 294 296 297 296 296 296 296 294 293 291 291 291 289
308 311 311 314 312 313 316 317 317 319 312 311 311 313 312 312 314 310 307 297 296 295 295 295 298 298 298 297 295 294 294 294 293 295 295 296 295 295 294 293 291 291 291 290 289
317 314 306 312 318 315 315 317 318 318 319 315 313 314 309 312 313 317 307 302 300 297 297 296 299 295 295 295 294 294 294 295 294 293 294 294 294 294 294 291 291 291 290 289 289
314 308 310 317 316 318 317 316 318 317 317 316 316 314 312 309 304 302 302 301 302 299 297 296 297 296 299 294 293 297 296 294 294 294 293 293 294 294 291 291 291 290 289 289 287

GFSSW_925_thetae_012.txt.gz
Theta_e
318 313 311 310 308 309 309 309 309 310 310 311 314 314 313 315 316 317 315 313 314 316 312 314 315 316 316 321 320 320 324 323 320 319 319 317 316 316 315 315 313 313 312 309 308
320 314 312 311 309 309 309 310 310 311 311 311 313 315 314 316 318 316 313 315 314 315 313 314 316 316 319 319 320 321 325 321 317 316 317 315 315 314 314 314 313 313 309 309 306
321 316 313 312 310 309 309 311 311 312 311 311 313 315 313 313 321 316 314 315 313 312 312 313 315 318 320 319 319 320 320 317 317 317 315 315 315 314 314 314 312 311 307 307 305
321 319 314 313 311 310 310 312 312 313 312 311 314 314 315 315 322 314 314 314 313 313 314 315 317 318 318 320 318 317 318 318 318 315 314 314 313 314 313 313 310 307 306 305 303
320 321 316 314 312 311 311 312 314 315 312 312 316 315 314 321 317 312 315 313 312 313 314 315 316 317 318 318 317 318 317 315 315 314 313 312 313 313 313 310 308 307 306 303 303
318 321 317 314 313 312 313 313 315 315 312 313 316 315 319 321 313 315 313 313 311 312 314 314 314 315 316 318 317 317 316 314 314 314 313 313 312 312 313 309 307 306 304 303 302
316 321 318 315 313 313 314 315 316 316 312 316 315 317 320 317 312 314 313 312 310 310 314 311 311 314 317 318 314 314 314 314 313 314 313 313 313 312 312 310 307 305 303 302 301
314 319 319 314 313 312 314 317 319 315 312 316 316 318 320 313 314 315 312 313 311 310 311 309 310 313 315 314 315 315 316 319 315 314 312 313 313 312 312 308 308 304 302 302 302
314 317 318 313 312 311 314 319 320 315 314 315 319 317 319 314 317 314 313 311 311 311 310 309 311 315 314 317 316 318 316 313 316 312 313 312 313 313 312 308 306 302 300 299 300
316 317 318 312 311 310 314 321 317 315 315 316 317 320 316 319 316 312 312 310 312 313 315 314 315 315 315 314 312 312 311 312 314 314 313 312 312 310 309 308 304 300 298 297 297
318 318 318 311 308 307 312 315 315 320 314 317 317 317 317 317 312 313 310 311 313 314 319 319 315 318 317 312 311 312 313 313 313 312 310 310 309 307 307 306 302 298 297 296 296
320 319 319 310 306 307 310 313 312 312 314 314 315 315 316 314 315 313 311 313 314 317 318 318 319 313 312 311 314 313 311 311 310 312 309 309 309 308 306 305 302 298 297 297 294
320 320 319 309 306 310 309 309 309 312 317 317 315 317 316 313 314 313 311 312 315 317 317 315 317 311 311 312 311 310 310 310 311 309 307 307 306 307 302 301 299 298 297 295 293
320 319 319 311 310 306 312 306 311 310 318 319 315 316 311 311 314 310 308 311 316 318 313 312 310 312 312 312 309 310 306 307 308 307 306 305 305 306 300 299 298 297 294 293 292
319 319 319 308 303 311 308 305 308 312 324 317 316 310 312 313 312 313 308 310 314 315 312 314 309 308 309 309 310 310 305 305 305 305 304 304 304 304 302 300 298 295 294 293 293
318 319 318 311 306 308 305 308 310 320 323 319 317 317 315 312 313 312 312 308 309 308 309 310 308 308 308 311 309 306 306 306 305 303 306 305 305 306 304 305 296 295 292 293 293
317 318 317 316 310 306 306 314 319 323 319 319 318 316 316 316 316 314 315 312 313 316 316 312 308 308 307 308 308 307 305 307 310 308 309 302 301 303 298 296 295 293 292 292 291
316 317 316 316 312 303 313 313 321 321 322 314 315 314 316 317 316 313 312 312 313 312 311 311 313 309 306 307 304 305 304 305 306 310 308 300 301 303 297 295 294 293 293 292 290
318 317 313 315 310 304 311 316 316 318 319 318 314 317 320 314 313 310 310 313 315 309 310 313 311 301 299 301 302 305 302 300 302 294 298 299 301 299 296 295 294 293 292 291 290
318 313 314 312 306 311 308 315 316 317 313 314 319 319 320 318 312 314 315 313 310 308 307 308 309 304 297 298 297 298 299 300 299 297 301 303 302 302 295 295 293 292 291 291 291
315 313 311 309 307 309 306 310 313 314 314 315 318 319 318 318 318 317 316 312 307 304 304 305 305 303 299 298 299 295 296 296 297 301 301 299 301 296 295 294 293 292 292 290 290
309 317 308 308 311 310 312 312 312 312 311 313 312 315 317 317 318 317 316 315 304 301 302 303 304 303 302 295 295 295 297 296 296 298 296 298 297 298 297 293 293 292 291 291 290
309 314 308 310 313 313 313 313 312 313 312 310 312 313 314 315 315 315 315 301 302 301 302 297 301 306 307 296 294 293 293 294 295 295 296 300 299 294 294 293 293 291 290 290 289
314 313 310 308 310 313 314 314 313 309 310 309 311 312 312 312 312 313 312 300 300 301 297 299 299 307 317 310 297 295 293 293 294 295 296 296 296 297 296 295 293 289 289 289 288
312 314 311 311 311 311 313 314 315 315 310 310 311 311 312 314 313 313 311 298 297 297 296 297 301 301 301 298 298 297 295 293 293 293 295 297 296 297 297 293 291 290 290 289 288
313 313 308 313 311 311 313 315 316 316 316 314 314 313 310 312 314 314 312 309 302 295 296 297 301 302 301 298 295 295 294 294 295 294 294 294 295 295 296 293 289 290 289 288 288
312 312 312 314 314 315 315 314 315 314 315 316 316 315 312 312 308 303 304 305 303 299 299 300 299 298 303 296 297 297 296 294 295 294 294 294 294 294 293 291 290 289 288 288 285

GFSSW_925_thetae_015.txt.gz
Theta_e
321 316 313 312 311 310 310 311 311 313 311 312 314 313 314 316 317 316 313 313 313 315 313 314 315 315 315 318 318 316 318 319 315 317 315 313 315 311 310 309 307 307 305 305 304
321 319 315 314 312 311 312 313 313 314 312 312 314 314 316 317 317 314 312 314 312 313 313 313 312 314 314 317 317 316 318 318 315 314 314 313 313 313 311 311 306 305 304 304 303
319 321 317 315 314 312 313 314 314 315 313 312 315 314 314 313 319 314 314 313 312 313 313 312 313 314 318 317 316 317 316 316 315 313 313 313 313 310 309 311 308 305 303 301 301
316 321 319 317 316 314 314 315 316 316 314 313 315 314 314 314 320 313 315 312 312 314 314 315 313 315 316 318 316 315 315 316 315 312 312 312 311 312 310 308 304 302 302 300 298
314 319 321 318 317 316 315 316 317 318 315 313 316 314 315 319 315 313 314 312 311 314 314 313 313 313 316 315 315 315 316 314 314 312 311 311 312 311 306 304 303 302 301 298 297
312 316 320 319 317 317 316 317 318 319 316 314 315 315 318 318 313 315 312 313 311 312 313 312 312 313 313 316 315 315 314 313 313 312 311 312 311 311 306 303 303 302 299 297 297
312 314 319 319 318 317 317 318 319 320 315 314 315 317 318 317 313 313 312 312 310 310 313 310 310 313 313 315 313 312 313 312 312 311 311 311 311 310 306 304 303 301 299 298 298
311 312 316 319 318 317 317 318 319 318 313 315 315 318 318 313 314 313 312 313 311 311 311 310 310 311 312 311 313 313 313 315 313 311 311 309 309 311 305 304 302 299 298 299 298
310 312 314 318 316 316 317 317 319 317 313 315 318 317 318 314 316 315 312 311 310 311 310 309 310 313 312 314 310 314 313 310 312 311 311 310 309 309 306 303 300 297 296 296 294
311 312 314 317 314 314 315 318 318 316 316 316 316 318 314 317 316 314 312 310 311 311 312 312 311 311 310 308 312 309 308 309 311 312 309 309 309 309 307 303 299 295 294 294 293
310 312 314 317 312 312 313 317 311 314 312 316 315 316 316 316 314 314 311 311 312 312 316 315 314 315 314 310 310 310 310 309 309 310 310 308 308 308 305 302 296 294 293 293 292
309 314 314 317 310 310 310 310 309 311 310 312 313 314 315 314 313 312 310 311 313 315 314 312 315 313 310 309 311 311 310 309 308 308 308 307 307 306 305 303 297 295 293 292 292
310 316 316 317 311 308 308 306 309 312 312 313 314 315 315 312 313 312 309 311 314 316 315 314 316 310 309 310 311 309 307 307 309 307 305 305 303 305 301 299 296 295 293 291 291
314 317 318 316 311 308 312 306 310 310 311 314 312 315 310 310 312 309 308 310 314 317 312 310 309 309 310 310 310 307 306 306 306 305 305 303 304 302 300 298 296 295 290 290 290
313 318 318 315 304 310 308 306 307 311 310 312 315 310 310 311 311 312 308 309 314 315 313 316 307 307 308 307 308 307 305 304 304 304 303 303 302 301 300 299 297 292 290 290 289
314 316 318 315 305 309 305 308 310 314 315 317 314 314 312 311 311 311 310 307 308 307 307 310 306 306 306 308 308 306 306 304 303 301 303 302 302 302 299 301 296 291 290 290 290
314 315 317 317 307 306 305 311 311 315 313 316 316 314 314 314 312 311 312 311 315 317 315 310 307 306 307 307 307 306 303 307 307 305 308 300 301 305 299 299 296 291 290 289 289
314 315 316 316 315 306 311 309 316 313 317 314 314 313 314 313 314 311 310 312 309 311 310 312 314 307 305 306 306 306 302 306 306 308 311 300 304 302 296 293 291 291 290 289 289
313 315 316 315 315 308 303 309 314 314 314 315 313 315 315 313 314 310 308 309 310 308 313 311 310 300 298 301 302 303 302 300 303 288 295 299 298 297 294 293 291 290 290 288 289
313 314 313 314 313 308 302 312 312 312 313 314 318 315 316 315 312 309 311 310 311 307 307 307 310 301 296 298 297 300 299 301 301 308 300 300 301 303 294 293 291 290 289 289 290
312 312 312 313 307 305 304 305 309 311 313 313 313 316 316 315 311 311 313 312 307 302 303 304 304 304 297 297 299 295 297 296 298 303 306 302 306 296 295 294 290 290 290 289 289
312 312 309 307 307 302 309 306 309 310 310 311 311 313 313 314 315 314 314 314 302 301 304 302 302 302 301 296 295 295 298 299 302 304 299 300 303 295 295 293 291 290 290 289 289
311 309 308 309 312 311 309 310 309 311 310 310 310 311 312 313 315 314 314 303 301 302 301 299 301 301 308 295 293 294 293 295 296 297 301 302 303 294 294 292 291 289 289 289 288
307 310 309 309 308 309 311 312 312 309 310 309 309 310 311 311 312 313 311 301 300 300 301 300 300 309 316 314 299 299 293 294 296 299 302 301 302 296 293 292 290 289 288 287 287
308 310 308 310 310 310 310 311 311 312 308 309 310 310 311 312 310 311 310 298 297 300 297 298 301 299 302 301 300 301 301 297 296 298 301 303 301 300 299 297 294 288 288 288 287
312 307 305 306 307 308 311 311 311 310 311 310 310 309 310 311 311 311 311 308 306 296 295 295 301 302 304 302 302 303 301 298 298 298 298 298 298 298 298 292 288 288 288 288 287
313 309 309 309 308 309 310 310 311 310 310 311 310 311 310 309 308 307 306 305 306 299 297 299 299 301 308 302 299 301 300 300 300 299 298 297 298 298 296 291 289 288 288 287 285

GFSSW_925_thetae_021.txt.gz
Theta_e
319 320 319 318 317 316 315 315 316 317 314 314 314 315 316 314 313 312 312 313 312 312 313 314 315 314 314 315 314 311 313 316 315 313 314 312 312 308 303 304 302 301 303 302 300
315 318 320 319 318 317 316 316 316 318 316 314 315 316 316 316 315 313 313 312 312 313 313 312 311 311 313 315 313 314 313 317 313 311 313 312 311 309 308 304 302 300 300 300 298
312 314 318 319 319 318 317 317 316 317 318 315 316 314 315 314 316 313 313 311 312 313 313 313 312 313 315 314 314 313 310 314 314 312 311 312 311 307 306 306 301 300 298 297 296
311 311 314 317 319 318 317 317 316 316 317 315 316 314 314 314 319 314 314 312 311 313 313 312 310 311 313 314 313 316 312 313 313 311 311 311 309 309 305 308 303 300 298 296 294
309 310 311 313 316 317 317 317 316 315 317 315 315 314 315 316 315 314 313 312 311 313 311 311 311 311 313 312 313 314 313 312 311 310 309 310 309 309 306 301 299 298 296 295 294
309 309 310 311 313 316 316 316 316 315 316 314 315 314 316 315 314 315 311 312 310 311 311 310 310 311 313 315 313 312 312 310 310 310 310 310 309 309 304 298 297 297 295 294 294
310 309 309 310 311 314 315 316 315 314 316 314 315 315 316 313 314 313 311 310 310 310 311 309 310 311 312 312 310 311 311 310 310 310 311 308 308 308 302 298 298 296 294 294 294
311 309 309 309 311 313 314 315 314 315 315 314 314 316 312 314 313 313 311 312 310 310 310 309 310 310 311 310 309 312 311 313 312 310 310 309 311 309 301 300 298 295 293 294 294
312 310 309 308 310 313 314 314 314 315 313 313 315 314 314 312 314 314 311 310 309 310 309 309 310 309 309 310 310 307 312 312 310 308 310 308 309 307 301 300 299 296 295 295 293
313 311 309 308 309 313 314 313 314 315 314 314 314 315 312 314 315 315 312 310 309 309 312 312 307 310 308 310 316 315 310 307 306 308 309 309 308 306 301 300 300 298 295 295 291
314 313 310 308 309 313 312 314 310 309 311 311 311 314 314 315 315 312 310 310 310 312 316 312 314 314 314 309 310 308 307 306 305 307 310 308 309 310 304 301 299 296 295 295 291
315 314 312 309 310 312 309 306 309 309 309 308 308 310 313 313 313 311 309 309 310 312 312 314 315 313 312 308 309 308 308 307 306 306 306 306 306 305 305 303 302 300 296 295 290
313 314 313 310 312 308 307 307 309 310 309 308 312 312 313 312 312 311 307 308 311 313 313 315 315 309 310 309 309 307 308 307 308 304 303 301 301 304 304 301 301 301 297 295 291
312 314 313 311 309 305 310 307 309 310 304 306 312 312 311 310 311 308 307 309 312 314 312 312 310 309 308 309 306 309 306 306 306 305 305 302 308 303 302 302 298 299 295 294 290
312 314 314 315 312 306 308 306 307 307 304 308 313 309 308 309 309 309 307 309 313 312 312 315 308 307 307 307 305 309 304 305 304 304 303 303 303 302 300 301 302 295 294 293 290
311 313 314 314 315 309 306 307 308 307 308 309 311 310 311 310 310 309 308 306 306 311 307 310 306 305 307 306 305 305 305 303 299 300 305 304 304 303 301 302 301 295 294 290 289
310 312 313 313 311 308 306 307 306 306 306 309 314 311 310 310 310 310 309 309 312 314 313 310 307 306 306 308 306 304 305 310 311 305 312 300 300 308 306 302 300 296 292 289 289
311 311 313 312 312 311 307 307 308 304 305 311 313 312 313 311 311 309 310 311 308 312 310 315 315 306 305 306 308 304 306 312 310 310 311 301 306 307 299 294 292 294 292 290 288
311 311 312 312 313 313 300 305 310 309 306 313 312 313 312 311 312 310 308 309 310 309 315 312 311 301 301 301 304 304 303 303 306 285 297 306 301 301 295 292 291 293 290 289 288
312 312 311 311 311 311 303 309 307 307 309 311 311 311 313 312 311 310 309 308 311 307 310 312 314 301 297 299 296 301 299 303 300 303 304 306 306 309 304 299 290 289 289 289 288
312 312 310 310 312 308 314 311 306 307 310 311 310 308 310 312 311 309 312 310 307 306 306 305 309 303 298 300 302 297 299 298 300 304 307 305 311 303 304 300 291 290 290 289 287
312 312 308 310 313 308 311 305 305 306 306 308 309 310 311 311 311 310 310 312 306 303 307 303 306 307 301 295 295 299 302 302 306 304 299 303 311 297 298 297 292 291 290 288 287
311 309 307 309 311 311 304 306 307 305 307 307 308 310 308 310 311 309 310 309 304 305 305 303 305 305 308 301 294 295 296 299 298 300 308 307 311 295 296 295 291 290 288 288 287
309 310 309 307 308 308 308 309 308 306 306 305 306 307 308 310 310 310 310 307 302 304 306 306 306 310 312 310 298 297 295 296 302 305 309 309 308 308 305 301 292 290 288 287 287
309 311 308 311 310 311 307 307 307 309 306 306 306 307 307 308 308 309 309 306 299 301 303 304 310 305 310 310 304 305 307 296 298 303 307 310 309 308 308 307 304 300 289 288 288
314 313 305 307 306 309 311 310 309 307 307 308 307 306 307 308 307 307 309 308 309 297 298 296 307 304 308 306 304 306 308 307 303 304 305 306 307 307 308 306 305 295 289 289 288
314 314 311 312 309 309 310 309 309 309 308 307 307 307 307 307 307 308 305 307 307 305 297 296 300 300 311 307 306 309 309 308 309 308 308 309 308 307 306 301 296 292 289 289 288

GFSSW_925_thetae_024.txt.gz
Theta_e
314 317 319 319 317 316 315 315 315 316 316 314 314 314 314 314 313 312 311 312 312 312 313 313 313 314 313 314 312 309 311 313 313 311 314 310 311 306 303 304 302 301 302 302 301
311 312 314 317 318 317 316 315 315 315 317 315 315 315 316 315 313 312 312 311 312 313 313 312 311 312 312 314 312 312 311 315 311 310 312 311 311 307 307 304 304 301 299 300 298
310 311 311 312 315 317 316 316 315 314 315 315 315 314 315 313 315 312 312 311 311 313 313 313 311 312 313 313 312 311 309 313 313 311 310 311 310 306 306 306 303 301 298 296 296
309 309 309 310 311 314 315 316 315 315 314 315 315 314 314 314 317 313 313 311 311 312 313 311 310 311 312 314 311 315 312 312 313 312 310 310 308 308 305 308 303 300 298 295 294
310 309 308 308 310 311 313 314 315 315 313 315 314 314 314 315 314 313 313 312 311 312 311 310 310 310 312 312 312 313 312 311 311 310 309 309 308 308 305 301 299 297 296 295 293
312 310 309 308 308 309 311 312 314 314 313 315 314 313 315 315 314 314 312 311 310 312 310 309 310 310 312 314 312 311 311 309 309 310 308 309 308 308 305 297 296 297 296 294 293
312 311 310 309 308 308 310 311 313 313 313 314 314 314 315 312 313 313 311 310 309 310 309 309 310 311 311 311 309 310 311 309 310 309 310 307 308 307 302 297 297 296 294 294 293
313 312 310 309 308 308 309 310 313 312 314 313 314 315 312 313 312 313 310 311 310 310 310 310 310 309 310 309 307 311 309 312 311 309 309 308 310 308 299 298 297 295 293 294 293
314 313 311 309 308 308 308 310 312 313 313 313 314 314 312 312 313 313 311 310 309 309 309 311 309 308 308 310 310 308 312 312 310 307 309 307 309 307 299 299 298 296 294 294 293
315 313 312 309 308 308 309 311 312 314 313 313 313 314 311 313 314 314 311 309 309 309 312 311 307 310 307 310 311 313 312 308 307 308 308 308 307 308 302 299 300 298 296 294 294
313 313 312 310 308 308 311 312 308 306 310 311 311 312 312 314 314 312 310 309 309 311 314 311 313 313 311 310 312 311 309 308 305 305 307 306 306 308 306 300 300 298 296 295 295
312 312 312 310 308 309 309 306 308 307 308 308 307 308 311 312 313 311 309 310 309 310 311 313 314 312 311 309 308 308 309 308 306 305 305 305 306 305 306 305 302 302 298 296 295
311 312 313 310 308 307 308 307 309 310 308 306 310 311 311 312 311 311 306 307 309 310 311 313 313 309 310 308 309 308 307 308 308 304 302 301 305 302 304 302 302 301 301 297 296
310 311 313 310 308 306 309 306 308 310 301 304 311 311 312 309 312 307 306 308 310 310 310 313 310 309 309 310 307 311 306 306 306 305 307 303 312 304 304 305 302 299 298 297 296
310 310 312 313 313 306 308 306 307 306 303 306 311 309 307 309 308 309 306 309 311 312 311 313 308 308 310 309 305 309 304 304 304 304 301 303 304 304 300 304 306 305 297 297 295
310 310 311 312 313 310 307 306 307 303 306 306 311 311 310 309 309 308 307 305 306 311 308 309 306 305 307 305 305 303 305 301 298 300 305 306 306 305 302 303 303 300 297 294 292
311 310 310 312 311 308 306 306 305 303 304 306 312 309 310 310 310 309 308 308 309 313 312 311 307 306 306 308 306 304 307 311 309 305 312 301 301 308 304 302 302 302 298 292 289
312 311 310 312 311 312 306 306 308 304 303 309 312 311 311 309 309 309 309 310 307 310 310 313 312 306 304 308 308 303 307 311 308 308 310 299 306 308 301 302 296 292 292 291 288
312 311 310 310 312 312 300 305 307 307 303 309 312 313 312 311 311 309 308 309 309 309 314 312 312 301 302 301 303 304 306 305 308 289 299 308 304 302 301 299 295 291 293 291 288
312 311 311 310 311 311 305 306 304 306 305 310 308 309 310 311 310 310 309 307 310 307 310 312 314 301 298 299 296 301 299 305 303 307 304 307 306 308 308 305 300 293 292 291 287
312 312 310 310 311 311 313 309 304 305 307 309 308 307 308 310 310 309 311 309 308 307 307 308 312 307 299 300 301 299 301 299 302 304 307 305 309 304 305 304 303 297 293 290 288
312 313 308 310 313 310 311 305 306 305 305 307 308 306 306 309 310 309 310 311 307 304 309 306 309 314 309 296 294 299 302 302 307 306 298 302 312 301 303 301 299 295 293 289 288
313 312 306 310 311 311 305 305 306 304 305 305 305 308 307 307 309 309 309 308 304 306 306 304 309 311 310 303 298 297 299 300 300 302 305 306 311 300 299 299 295 294 291 288 287
310 312 308 307 309 309 308 308 308 305 306 304 304 305 306 306 308 308 307 307 304 306 306 308 308 310 311 309 303 301 299 300 304 309 310 309 310 309 308 308 307 301 290 289 287
311 312 309 310 311 310 307 306 307 308 306 305 305 305 306 306 306 307 307 306 301 302 304 306 311 308 309 309 300 302 304 302 301 305 308 310 309 309 308 308 308 305 298 289 287
318 314 308 311 310 311 311 311 309 306 305 306 306 304 305 306 305 305 305 307 308 297 300 299 309 308 310 309 305 308 308 308 302 304 304 306 308 308 309 308 307 306 304 293 288
315 312 312 311 311 311 312 311 312 310 309 306 307 307 306 305 305 306 305 304 305 305 299 297 302 300 311 307 305 308 308 309 310 309 308 307 307 307 307 307 306 305 297 294 290

GFSSW_925_thetae_027.txt.gz
Theta_e
311 311 312 313 315 316 316 315 315 314 314 314 314 314 314 314 312 312 311 312 312 312 313 313 312 313 314 312 311 308 312 314 313 311 313 308 310 306 303 305 303 303 303 302 303
309 309 310 310 311 312 314 315 315 315 313 315 314 314 315 314 314 311 312 312 312 313 312 312 311 312 311 313 311 312 311 313 311 309 312 310 309 308 307 305 305 302 299 300 299
309 309 308 308 309 310 311 313 314 314 314 314 314 314 315 313 315 311 312 311 311 313 313 312 311 312 312 312 311 309 310 312 312 310 310 310 309 305 307 307 307 306 301 298 297
311 310 309 308 308 308 309 311 312 313 313 313 314 314 313 314 315 313 312 311 311 312 312 311 310 312 312 314 310 315 311 311 312 311 310 310 307 308 305 310 304 303 301 297 297
312 311 310 309 308 308 308 309 310 312 312 313 314 314 314 314 312 313 313 311 310 312 311 310 311 310 314 311 311 313 312 311 310 310 309 308 309 308 306 304 301 299 297 297 297
313 312 311 310 309 308 307 308 309 311 312 313 314 314 314 314 313 314 313 311 309 312 310 310 309 309 310 313 311 310 311 310 308 309 308 309 308 308 306 298 299 298 298 297 296
314 313 312 311 309 308 307 307 308 310 311 313 313 313 313 311 313 313 311 310 309 311 309 309 310 310 309 311 309 309 311 309 308 308 309 306 309 307 306 298 299 298 298 296 296
314 313 312 312 310 308 307 307 308 309 312 313 313 315 311 313 312 313 310 309 309 310 310 309 310 308 309 307 307 311 309 312 310 308 309 308 313 309 302 300 302 298 296 296 295
314 313 312 312 310 308 307 307 308 311 313 312 314 313 312 312 312 313 310 310 309 309 309 311 309 307 308 311 311 308 311 312 310 307 309 308 312 308 300 299 302 299 297 296 296
313 312 312 310 310 308 307 308 310 312 313 313 313 313 310 312 313 313 310 309 308 309 311 310 306 310 307 310 313 310 312 309 309 309 307 307 308 309 304 301 303 302 299 296 296
311 312 311 310 310 308 307 311 307 304 309 311 312 311 311 313 313 311 309 309 309 309 311 310 313 313 311 309 311 312 311 311 308 305 306 306 308 309 308 302 304 301 300 297 296
311 310 311 310 310 308 308 306 308 307 307 307 305 306 309 313 313 311 308 309 309 309 310 312 313 311 310 309 309 308 310 309 307 305 305 305 307 307 306 308 307 305 302 299 297
310 310 310 310 310 306 307 308 309 309 308 307 307 309 310 311 311 310 306 307 309 308 310 310 311 308 310 308 309 308 308 309 310 304 302 301 303 303 304 303 304 303 302 299 298
310 310 309 311 308 308 308 307 308 309 300 303 308 311 311 309 311 307 306 307 309 309 308 310 309 310 310 311 307 311 307 307 307 306 309 303 311 304 305 306 305 304 301 301 298
311 310 309 311 312 308 307 306 307 303 303 305 309 308 308 310 307 308 306 308 308 310 310 311 308 309 310 310 307 311 303 304 304 304 302 304 304 307 301 305 307 306 300 300 298
313 311 309 310 312 310 308 306 306 302 304 304 310 310 310 309 308 307 306 305 306 310 308 309 305 306 309 303 304 302 304 302 298 300 306 308 307 305 304 305 305 304 301 298 296
313 312 310 310 311 308 306 305 303 300 302 305 310 309 310 310 310 308 307 308 309 311 311 310 307 305 305 308 305 304 309 313 310 307 312 300 303 308 305 303 304 306 303 297 294
314 312 311 309 311 312 305 306 304 302 302 308 311 309 310 308 309 308 308 308 306 309 309 311 312 305 304 308 309 304 309 313 309 308 309 299 306 308 303 305 301 299 297 294 292
314 312 311 310 310 310 302 306 303 304 303 305 311 312 311 311 310 308 307 308 308 309 314 311 311 301 302 301 304 304 307 306 307 289 301 308 305 304 302 301 299 298 293 294 292
313 311 311 312 310 310 302 304 303 304 303 308 306 307 306 309 308 309 308 307 310 307 310 311 314 304 298 298 297 302 300 306 305 308 306 309 308 308 306 305 303 302 297 295 292
313 313 311 311 311 312 312 307 302 303 305 306 305 304 305 307 309 308 309 307 308 307 307 309 312 306 300 301 302 300 301 300 303 305 308 310 309 303 305 304 304 303 299 295 293
312 315 308 310 313 312 310 305 306 305 303 305 305 304 303 305 307 307 308 309 306 305 309 308 311 314 309 297 295 300 303 304 308 307 300 304 312 305 306 303 301 302 298 296 292
314 313 306 310 314 312 307 305 306 304 304 304 305 306 304 304 307 306 307 306 305 307 307 307 311 315 311 302 298 300 299 300 301 302 308 307 310 304 302 301 299 300 297 294 292
312 312 308 307 310 313 312 310 308 305 306 303 304 304 305 305 306 307 306 306 304 306 306 309 311 314 311 308 303 303 299 301 304 309 309 309 309 309 308 307 304 299 296 294 292
314 313 306 308 310 312 312 311 312 310 305 305 305 305 305 306 305 305 305 304 302 305 305 307 311 311 312 312 307 303 304 303 303 306 308 309 307 308 308 307 307 306 306 303 291
317 314 309 311 308 310 312 313 313 313 307 307 307 304 305 306 305 306 305 304 306 298 302 301 311 309 311 309 307 308 308 308 308 306 305 306 307 307 307 306 306 307 306 305 299
314 315 311 313 311 311 311 311 312 311 310 308 307 307 307 306 306 306 306 303 304 304 301 301 304 303 311 308 307 308 308 308 308 308 308 309 308 308 307 306 306 306 305 304 304

GFSSW_925_thetae_030.txt.gz
Theta_e
309 309 309 309 310 311 312 313 314 314 313 315 314 313 313 315 312 312 312 312 312 312 313 313 312 313 316 318 317 315 320 321 320 318 319 314 315 311 309 312 310 311 310 307 306
309 309 308 308 308 308 309 310 312 313 313 313 314 315 314 314 315 313 312 312 312 312 312 314 315 315 318 318 318 320 320 319 318 316 317 315 315 315 313 313 312 311 307 303 302
311 311 310 309 308 308 307 308 309 311 312 312 314 314 313 315 316 316 312 311 311 312 312 312 313 317 319 318 317 317 320 317 316 315 314 315 314 313 314 315 316 316 314 305 303
312 312 311 311 310 309 308 307 308 309 311 311 313 314 313 314 317 313 312 311 311 312 312 312 314 317 319 319 316 319 315 315 316 314 313 314 313 313 314 317 314 314 312 306 305
313 313 312 312 311 309 308 308 307 308 310 311 313 314 313 316 316 313 312 311 310 312 312 314 317 317 320 317 315 317 316 314 314 313 313 311 314 314 313 314 312 308 307 307 306
313 312 312 312 312 310 309 308 307 307 309 310 313 313 315 316 313 314 313 311 309 311 311 313 316 314 316 317 316 315 314 315 314 314 313 313 315 311 316 311 311 308 309 308 307
314 313 312 312 312 311 309 308 307 307 308 311 313 313 315 315 312 314 312 310 309 310 313 310 312 315 314 315 312 312 316 316 314 313 314 312 315 314 315 307 310 308 308 308 307
313 313 312 312 311 311 309 308 307 307 310 312 313 314 316 313 312 313 310 309 309 310 310 310 310 312 313 311 313 316 315 319 315 313 312 312 319 319 315 309 312 312 309 307 306
312 312 312 311 310 310 309 307 307 309 312 312 313 315 316 312 312 312 310 310 309 309 310 310 312 314 313 318 319 317 318 317 316 313 312 313 319 317 310 310 312 313 312 308 306
311 311 310 310 309 308 308 306 308 311 312 312 313 316 313 314 312 312 309 309 310 312 314 315 315 318 316 318 316 316 317 317 317 314 312 314 315 316 315 310 312 314 314 311 307
310 310 310 309 307 308 307 308 311 310 310 315 314 315 312 312 313 311 308 309 311 312 314 315 317 318 317 317 316 315 316 317 318 311 312 315 315 315 315 314 313 312 313 312 309
311 310 309 307 309 308 307 310 310 307 310 309 307 307 309 313 314 312 308 312 312 314 314 315 316 316 315 315 315 316 318 319 318 310 310 314 313 313 313 313 313 313 313 313 310
312 310 310 307 309 306 307 308 309 309 313 311 309 310 311 311 314 314 309 311 313 313 314 315 315 312 314 315 315 316 318 318 317 312 308 308 313 312 311 309 310 310 311 311 309
312 311 310 307 307 310 308 307 308 308 308 308 308 311 312 312 312 307 307 311 312 314 313 315 313 313 314 316 315 318 315 314 314 314 318 309 318 316 314 312 310 313 314 309 307
314 312 311 308 310 310 307 306 307 304 310 307 308 308 310 312 309 309 305 309 313 312 313 315 313 313 315 315 313 317 307 310 309 312 310 315 314 314 307 310 311 313 313 311 308
315 314 312 310 311 310 308 306 306 306 305 307 311 312 314 310 309 307 308 307 308 313 312 314 308 310 314 305 307 306 309 308 306 310 316 315 315 313 312 311 311 312 313 309 306
316 314 312 311 312 308 308 307 307 305 304 307 312 311 312 313 311 310 310 311 313 315 316 314 313 308 307 312 307 308 314 318 320 320 318 309 310 311 311 311 311 313 313 307 305
318 314 313 311 310 311 305 310 306 308 307 309 311 310 314 312 312 311 310 313 310 311 313 316 315 310 309 314 317 311 316 319 321 317 316 306 311 312 310 311 311 306 308 303 303
319 313 312 312 310 311 306 309 306 307 307 307 311 313 313 312 311 312 312 313 313 311 315 315 315 305 304 305 307 309 313 312 318 311 315 315 315 312 309 308 306 305 305 305 304
315 312 312 313 310 310 307 307 306 306 305 309 308 311 310 311 311 313 313 312 313 310 312 313 315 308 299 302 300 306 306 313 313 321 321 315 315 315 313 310 309 308 307 308 304
315 313 313 313 309 312 311 308 307 305 305 307 308 307 308 309 312 310 311 310 311 311 309 312 315 310 303 306 310 305 308 306 307 311 317 317 314 311 310 309 309 309 309 310 305
314 316 310 310 313 312 311 312 307 306 305 306 306 307 307 307 308 311 310 310 310 309 311 311 314 317 314 302 301 304 309 310 313 314 311 314 315 305 310 309 308 308 308 307 305
315 314 307 310 317 313 312 312 310 309 307 306 306 307 307 306 306 308 309 309 308 310 311 309 315 319 315 304 299 306 305 307 310 311 314 316 314 310 310 310 307 307 308 306 305
315 314 308 308 312 314 315 315 313 309 311 306 305 305 306 306 306 308 309 308 309 309 310 310 315 316 314 313 308 309 307 306 308 313 314 313 313 312 311 311 310 310 308 306 306
315 314 308 308 310 312 314 315 317 313 308 308 307 307 308 308 308 307 308 308 306 307 309 310 313 313 314 312 311 310 310 309 307 309 311 311 311 311 310 310 310 310 309 309 308
312 315 307 311 310 310 311 314 316 317 314 310 310 311 307 308 310 317 310 308 308 303 306 306 312 312 312 311 311 312 312 312 312 312 311 310 309 309 308 308 309 309 308 308 307
305 306 309 312 311 311 311 311 313 314 314 313 312 311 312 309 309 309 309 308 309 310 309 307 309 311 314 312 311 311 311 310 310 310 310 311 311 310 310 310 310 309 309 308 306

GFSSW_925_thetae_033.txt.gz
Theta_e
309 309 308 308 308 308 308 309 310 312 313 312 313 314 313 314 314 314 315 315 314 312 313 314 315 316 319 321 320 319 322 324 323 321 322 318 318 316 314 317 315 315 316 313 311
311 311 310 310 309 308 308 307 308 309 311 312 313 314 314 314 317 316 315 312 312 312 314 316 318 317 321 322 321 322 325 324 321 320 319 319 318 319 315 316 316 316 313 309 308
312 312 312 311 310 310 308 308 307 307 309 310 312 313 314 314 318 319 315 312 311 312 314 315 317 319 321 321 322 322 324 321 320 318 318 318 318 317 317 318 319 319 317 310 308
313 313 312 312 312 311 310 309 308 307 307 309 311 313 314 316 319 315 312 311 310 313 314 315 318 319 321 323 321 321 321 319 319 317 317 317 317 317 317 318 318 319 319 314 310
312 312 313 312 312 312 311 310 308 307 307 308 310 313 314 317 317 314 312 311 310 312 315 317 320 320 322 321 319 319 320 318 318 317 316 316 316 317 318 318 317 316 314 315 312
314 313 312 312 312 312 311 310 309 307 307 307 311 313 317 316 314 314 313 311 311 312 314 316 320 318 319 319 319 318 318 318 318 317 316 316 317 316 318 318 317 317 314 313 313
313 313 312 312 312 312 311 311 309 307 307 309 312 313 317 315 313 313 313 311 310 312 315 314 316 318 319 320 317 316 318 320 319 317 317 315 317 317 317 316 316 316 315 314 313
310 311 311 310 311 311 311 310 308 307 308 311 312 315 316 314 314 313 311 310 310 311 313 312 313 317 317 316 317 318 319 319 319 317 315 315 319 319 319 317 316 316 316 314 313
310 307 308 308 309 310 310 309 307 308 311 312 315 317 316 312 314 314 312 312 311 311 312 311 315 318 316 318 320 321 320 320 320 317 317 316 319 319 318 316 316 317 317 316 315
312 310 309 306 307 309 308 307 307 311 312 312 313 316 315 315 315 313 310 311 312 314 315 316 317 317 319 319 319 318 317 317 318 318 316 317 317 318 318 318 318 317 316 316 316
312 311 310 309 305 307 307 308 314 314 313 316 317 317 314 314 313 313 310 311 312 314 316 317 317 319 318 319 319 318 318 317 317 317 317 318 318 318 318 318 318 318 317 316 316
313 312 312 310 307 307 307 311 313 309 311 312 312 312 312 315 317 315 310 313 314 316 316 317 317 317 317 317 317 317 317 318 318 318 315 317 317 318 317 318 318 317 316 316 315
314 313 312 311 309 308 310 311 309 310 314 312 312 312 312 312 314 315 312 313 315 316 316 317 316 315 316 317 317 317 318 318 318 318 314 314 316 317 316 316 315 315 314 314 314
316 314 312 312 311 313 310 307 308 309 309 311 309 312 313 313 311 310 311 313 315 315 315 316 316 316 315 316 316 317 317 318 319 319 319 314 318 317 316 317 316 316 315 315 315
317 315 313 313 310 314 309 307 307 308 318 310 309 309 313 313 311 310 307 311 314 314 315 314 317 316 317 316 316 317 312 315 316 318 318 317 318 316 315 315 314 314 315 315 315
319 316 314 313 313 312 308 307 309 309 313 309 312 312 315 313 311 309 310 310 311 313 314 315 311 314 316 311 313 311 313 313 313 315 319 317 317 316 316 314 313 313 313 314 312
322 318 314 313 315 310 309 310 308 308 308 312 313 313 314 316 314 311 311 312 314 316 317 317 316 314 311 314 310 311 316 319 322 322 320 316 316 316 315 313 313 313 313 314 311
323 320 316 313 313 310 309 309 308 312 311 311 311 313 315 315 315 313 314 315 313 315 315 317 317 315 311 315 318 313 317 320 323 319 318 316 317 316 316 314 313 313 313 311 309
322 318 314 313 312 310 310 309 314 315 312 310 313 312 313 314 314 315 315 316 315 313 315 315 315 308 309 309 314 314 315 315 320 323 322 317 318 318 314 313 312 312 310 310 309
317 314 314 313 311 310 309 311 315 313 310 309 310 311 312 312 313 314 314 314 314 314 314 314 316 313 303 305 305 310 310 315 315 323 323 318 317 316 316 315 313 312 311 312 311
317 315 313 314 310 311 310 311 316 313 308 307 309 311 312 313 313 312 312 313 314 315 313 314 315 313 306 308 313 308 311 309 310 317 319 318 315 313 314 315 313 314 312 312 312
315 317 312 311 313 310 309 313 313 316 308 307 307 308 309 309 310 310 312 312 312 312 312 312 316 317 314 312 308 311 312 313 314 315 314 314 315 310 313 312 312 311 311 312 311
316 317 309 312 318 312 310 312 313 317 313 307 308 307 309 308 307 310 311 312 311 312 313 311 316 319 315 310 305 308 310 310 313 313 314 318 316 313 314 312 310 310 311 310 310
314 316 309 309 314 317 313 315 316 315 316 313 310 309 310 309 309 310 313 312 311 310 312 311 314 315 317 316 313 311 310 310 310 314 314 314 313 313 313 313 313 313 312 312 311
310 315 311 311 312 315 315 316 317 318 316 315 314 312 312 315 314 312 311 311 310 310 309 311 313 314 314 314 313 312 312 311 311 311 313 313 313 313 313 313 313 312 311 310 310
306 311 308 311 313 312 314 315 317 316 317 318 314 314 314 313 315 318 315 314 312 309 309 310 313 312 313 312 313 313 313 313 313 312 312 311 312 311 311 311 310 310 311 310 310
302 301 300 304 309 312 313 315 315 316 316 317 317 313 314 312 311 313 314 315 311 311 310 308 310 312 314 314 315 316 314 314 314 313 313 313 313 313 312 311 312 312 311 310 309

GFSSW_925_thetae_036.txt.gz
Theta_e
311 311 311 310 310 309 308 307 307 308 310 311 312 313 313 313 314 313 316 316 316 314 313 316 316 316 318 321 320 320 321 324 325 323 322 317 317 315 314 316 316 315 315 313 311
312 312 312 311 311 310 309 308 308 307 307 309 310 313 314 314 314 318 316 315 312 312 315 316 318 318 320 322 321 321 326 326 320 319 319 318 317 317 315 314 315 315 311 311 309
312 312 312 312 312 312 311 310 309 308 307 307 309 312 313 313 320 319 317 315 312 312 315 316 316 319 321 322 322 322 323 321 320 319 318 317 317 317 316 315 315 314 313 309 308
312 312 312 312 312 312 312 311 310 309 307 307 308 311 313 315 319 316 314 313 311 312 315 315 318 320 320 323 321 321 320 320 320 317 317 317 317 316 315 315 317 317 316 309 307
313 312 312 312 312 312 312 312 311 310 308 307 307 311 315 318 318 314 312 311 310 313 315 317 318 319 321 321 321 319 318 318 318 317 316 316 315 315 314 314 314 314 314 309 309
311 312 311 311 311 312 312 312 311 310 309 307 308 311 316 316 315 314 312 311 312 313 314 316 318 318 318 319 319 318 318 317 317 317 316 315 315 315 315 313 313 314 311 310 309
312 311 309 309 309 310 311 311 311 310 308 307 310 312 317 316 314 313 313 312 311 312 314 315 316 317 319 320 317 316 316 316 316 316 316 316 315 315 314 313 314 313 312 310 310
313 312 311 309 306 307 309 310 309 309 308 308 311 315 316 314 315 313 312 311 310 311 313 314 314 316 317 317 316 316 317 318 319 317 314 314 315 316 314 314 313 312 311 311 310
313 313 313 312 309 305 307 308 308 307 309 311 313 317 317 313 313 314 312 313 311 312 313 312 315 317 316 316 315 317 318 318 320 316 314 314 315 317 316 316 314 312 311 311 311
315 314 314 313 310 305 305 307 307 309 312 313 314 317 315 316 315 314 312 312 313 313 314 315 316 316 315 315 317 318 318 316 316 315 315 314 314 314 314 315 313 313 313 312 312
315 314 314 314 310 305 306 307 314 316 314 316 317 316 315 315 313 313 311 311 313 314 314 315 315 316 316 316 317 316 317 316 316 316 316 315 315 315 315 314 314 315 315 314 313
316 316 315 315 307 306 310 312 312 309 311 311 312 314 314 315 317 315 311 312 313 314 314 316 317 316 316 316 315 316 316 315 315 314 315 314 315 315 314 315 315 315 314 314 312
317 316 315 316 308 313 310 311 309 312 314 312 311 312 311 313 313 315 310 312 314 315 315 315 316 316 315 315 315 315 315 315 315 315 312 314 314 314 313 314 314 314 313 313 310
320 318 315 316 314 312 311 308 308 310 310 311 311 312 313 313 311 312 311 313 314 314 314 314 314 315 314 315 314 314 314 315 316 315 316 314 315 314 314 313 312 312 311 311 309
322 320 316 315 313 312 310 307 307 311 312 312 309 310 313 312 311 310 307 310 313 314 315 314 314 315 316 315 314 315 312 314 315 316 316 316 315 314 313 312 312 311 311 311 310
323 322 317 315 315 313 309 307 310 309 310 312 312 313 314 313 312 308 309 308 310 313 312 312 312 314 315 311 313 311 314 313 313 312 315 314 315 313 312 312 312 311 311 310 308
323 322 319 315 316 313 308 311 309 309 312 313 313 313 313 315 313 310 311 310 311 313 313 314 313 312 311 313 310 311 315 316 318 316 317 312 313 315 314 311 310 309 310 309 307
321 321 319 316 315 315 309 310 310 317 315 312 312 314 315 314 314 312 313 313 311 312 314 316 315 313 310 313 315 311 315 318 317 314 314 313 313 312 312 311 309 309 310 307 306
320 318 315 317 315 312 311 311 320 321 317 316 315 312 312 313 314 314 312 313 313 311 314 313 313 309 309 311 313 313 313 314 315 306 312 312 311 312 312 311 309 308 309 306 305
316 315 314 318 315 310 310 313 317 318 316 313 311 312 312 311 313 314 314 313 313 312 312 313 314 310 306 306 306 309 308 312 313 310 312 313 314 315 312 310 309 309 307 307 306
314 316 315 315 312 311 312 311 315 315 316 315 316 310 309 309 310 311 312 312 313 314 312 313 314 311 306 306 309 307 308 309 310 313 316 318 315 310 312 312 310 308 308 308 307
314 317 313 313 314 313 313 311 313 315 316 316 308 310 312 310 311 310 309 310 309 312 312 312 315 317 313 308 306 309 310 310 312 313 311 313 314 309 310 310 309 308 308 308 308
312 315 311 313 319 317 310 313 313 315 316 316 317 311 312 312 314 313 313 312 313 312 312 310 314 316 315 312 305 308 308 310 311 310 312 313 313 311 310 308 307 307 306 306 306
310 314 310 310 315 318 318 314 314 313 314 315 316 315 316 315 314 315 314 312 311 311 313 312 314 315 316 314 313 311 309 308 309 312 312 312 311 311 311 311 311 311 307 306 306
307 311 312 313 310 312 316 316 316 315 314 314 316 317 315 316 315 315 313 313 312 312 311 311 313 312 312 312 312 312 312 312 314 309 310 310 310 310 311 311 311 310 310 308 308
304 307 303 305 306 308 312 312 316 315 316 315 316 316 316 318 316 317 316 314 314 311 312 311 313 312 314 312 312 313 312 312 313 313 314 311 309 309 309 309 309 310 310 309 308
299 298 299 302 304 305 308 311 310 305 308 314 313 315 316 316 315 314 314 314 314 316 315 309 311 312 313 312 312 314 313 312 312 311 311 312 311 311 311 310 310 310 310 309 309

GFSSW_925_thetae_042.txt.gz
Theta_e
311 312 312 312 312 312 311 311 310 308 307 307 307 308 311 313 313 313 313 313 315 315 315 315 316 315 315 316 316 312 311 315 316 319 317 315 315 314 312 314 313 312 311 310 311
312 312 312 312 312 312 312 312 311 311 309 308 307 307 310 312 312 313 313 315 315 315 315 315 313 314 314 317 316 314 311 313 314 316 316 315 313 314 314 313 312 313 309 309 309
311 311 312 312 312 312 312 312 312 312 311 310 308 307 309 312 315 314 317 315 315 313 315 315 315 314 316 316 316 315 315 316 317 316 314 315 314 312 313 312 310 311 309 305 304
310 309 309 309 310 311 311 312 312 312 312 311 309 307 309 313 309 316 315 317 314 312 315 314 313 315 316 317 316 318 315 315 317 316 315 315 313 313 310 314 312 308 308 305 303
312 312 311 309 308 306 306 307 310 311 311 311 309 308 311 315 312 313 314 314 312 311 313 312 314 315 316 314 316 317 316 315 314 314 312 313 313 312 310 308 308 308 306 306 305
313 314 313 312 311 309 307 305 305 307 309 310 309 308 312 310 312 314 314 312 311 312 313 312 312 313 315 315 315 314 315 314 313 313 313 314 313 312 312 310 308 308 307 305 306
314 314 315 315 313 310 309 308 305 304 306 308 308 309 316 309 312 313 313 312 310 312 311 312 314 314 314 315 314 314 314 312 313 312 312 311 313 312 313 311 310 308 306 305 306
316 317 317 318 318 311 307 308 306 305 305 307 308 312 308 311 313 313 312 311 310 311 311 313 313 313 314 313 311 314 312 313 311 311 312 312 314 312 311 310 310 308 307 305 305
317 318 319 319 319 313 307 306 307 306 306 309 311 314 311 312 313 313 313 311 311 310 311 312 313 312 313 311 309 309 308 310 312 311 312 311 313 313 310 308 308 307 306 306 307
318 319 320 320 319 312 308 308 308 308 312 313 314 313 311 312 313 313 312 311 310 311 311 311 310 311 310 308 310 309 310 310 311 312 311 311 312 312 311 310 307 307 305 305 306
320 320 321 321 320 311 308 311 306 306 310 307 309 309 312 313 314 312 311 310 310 311 309 310 309 310 310 310 310 309 309 310 310 310 312 312 313 312 312 310 308 310 310 309 306
320 320 321 321 320 314 310 310 309 308 306 306 306 308 311 313 313 311 310 310 310 310 309 311 311 309 309 309 311 311 311 311 311 311 310 311 312 311 310 312 312 311 310 309 310
321 321 322 321 320 317 310 308 309 310 310 308 307 306 306 310 310 312 308 308 309 310 310 311 311 311 310 311 312 311 312 312 312 311 309 308 311 309 308 311 311 311 311 311 310
322 322 322 321 317 317 311 310 307 310 304 306 309 310 310 310 309 308 308 309 310 310 309 309 310 310 311 312 312 313 311 312 311 311 312 310 313 311 310 309 309 310 311 311 311
323 322 322 321 320 316 314 311 308 306 318 311 308 309 310 307 308 308 307 309 310 311 311 309 311 310 311 312 310 313 310 310 310 310 311 311 312 313 309 309 310 311 310 310 310
324 323 321 320 318 318 315 308 308 308 315 308 308 311 310 310 310 307 308 307 308 310 308 310 309 310 309 310 308 310 312 311 308 308 313 311 311 313 309 311 310 310 310 310 311
321 322 321 319 318 315 317 307 319 316 311 312 309 311 310 310 311 308 308 309 309 309 307 308 309 308 310 311 310 311 311 312 311 312 316 309 311 313 310 309 308 309 310 309 310
320 320 320 320 319 316 318 318 323 317 311 312 311 310 311 310 311 309 308 308 306 308 308 309 312 309 308 310 310 309 311 313 313 313 313 307 312 312 309 310 309 308 309 306 304
314 317 317 318 319 318 316 323 323 319 317 318 317 319 311 310 309 309 308 308 307 307 310 309 310 308 308 309 310 310 312 311 312 301 308 311 309 310 307 307 306 305 304 303 302
311 315 315 317 317 313 316 322 319 316 317 314 321 318 317 309 309 310 310 308 309 306 307 309 312 307 306 306 305 308 308 313 311 313 311 311 311 313 311 309 310 306 306 305 302
308 313 312 315 314 312 318 318 319 314 315 317 319 320 317 312 309 313 313 310 308 310 306 309 311 312 306 307 310 307 309 308 309 313 316 316 314 313 311 308 307 306 305 302 301
308 310 312 314 315 314 318 317 315 314 313 316 315 318 319 319 320 319 318 312 307 309 311 310 313 316 315 310 305 306 309 310 313 313 310 314 314 312 311 308 307 304 303 302 304
308 308 311 313 315 316 315 315 315 316 315 316 317 314 316 317 318 317 317 315 314 314 314 311 314 319 316 313 311 308 310 310 310 310 312 313 313 312 311 311 308 307 308 306 304
304 305 309 311 312 313 313 313 315 313 314 315 316 315 316 317 316 318 317 314 312 313 314 313 316 318 318 316 313 312 309 309 310 312 313 313 312 310 311 310 310 309 309 309 309
301 303 304 309 310 311 312 312 312 312 312 313 314 314 315 316 315 315 314 312 312 312 312 314 316 316 316 316 316 316 316 315 314 314 316 315 313 311 311 311 310 309 309 308 306
299 300 300 301 302 306 308 310 312 311 311 311 312 303 305 307 307 307 305 307 307 304 304 305 312 312 314 314 313 315 315 314 314 315 316 314 314 313 312 313 313 312 311 311 311
295 296 298 298 299 300 301 304 305 304 302 304 300 298 299 299 299 298 298 299 300 300 300 302 305 308 310 311 314 316 314 314 314 313 314 315 313 312 312 311 310 310 306 303 302

GFSSW_925_thetae_045.txt.gz
Theta_e
311 311 311 312 312 312 312 312 311 311 310 309 307 307 307 310 312 312 312 313 314 314 314 313 315 315 314 315 314 309 312 314 314 317 317 314 314 313 311 313 312 310 310 309 310
311 311 311 311 312 312 312 312 312 312 311 311 309 308 307 310 311 313 312 314 314 314 315 315 313 313 313 316 315 312 308 311 311 315 315 314 313 313 313 312 311 312 309 308 310
311 311 311 311 310 310 311 311 312 312 312 311 310 309 307 310 312 310 316 313 315 315 314 314 314 313 315 315 316 313 313 312 315 314 314 314 313 312 312 311 309 311 309 305 306
309 309 308 308 307 307 307 307 308 310 311 311 311 309 308 311 309 314 315 315 315 313 314 314 312 314 315 316 314 317 314 314 315 316 314 313 313 313 310 314 311 308 308 304 303
312 312 312 311 310 309 309 307 305 305 308 310 310 309 309 312 310 312 313 315 314 312 314 311 313 313 315 313 314 316 315 315 313 313 312 311 311 312 311 309 307 307 306 305 304
314 314 315 315 315 314 310 309 308 305 304 307 309 308 312 308 311 312 314 313 312 311 312 311 311 312 314 314 314 313 313 312 312 312 312 314 313 311 313 311 308 307 306 304 305
315 317 318 319 319 319 315 308 307 308 305 305 307 308 314 308 311 313 313 312 311 311 310 311 313 313 313 314 312 312 312 310 310 311 312 310 313 311 313 310 309 307 306 305 304
317 318 319 319 320 320 318 309 307 307 307 305 306 312 306 310 311 312 312 311 310 311 311 312 312 312 313 312 309 311 310 311 310 310 311 312 313 312 309 309 309 308 305 305 304
318 319 320 320 320 320 312 308 308 308 307 307 310 312 309 311 312 313 312 311 310 310 310 312 312 311 312 309 308 307 308 307 308 309 311 310 311 311 310 308 308 307 306 305 305
319 320 321 321 321 319 315 309 310 311 312 313 314 310 309 311 312 313 311 311 309 309 310 310 308 309 308 307 309 308 308 307 308 309 310 311 310 311 311 309 310 308 307 305 306
320 321 321 321 321 318 315 309 305 305 309 309 310 308 307 312 313 311 310 310 310 309 308 309 308 309 309 308 309 307 307 307 307 308 311 310 311 311 312 311 311 309 310 310 311
321 321 322 322 321 317 309 308 308 305 307 306 304 307 309 312 312 311 310 309 310 310 308 310 309 308 308 307 309 309 309 309 310 309 307 308 310 309 309 311 312 312 312 310 309
321 321 322 322 321 318 309 307 309 310 307 307 306 306 306 309 308 310 308 307 309 309 308 310 310 310 308 309 309 309 309 310 310 309 307 308 311 309 308 309 310 311 311 310 309
322 322 322 322 319 318 310 311 307 309 307 308 307 308 309 309 310 307 307 308 309 309 308 308 309 309 310 310 309 311 308 309 310 311 313 308 312 309 310 308 308 309 309 309 309
324 323 323 322 321 318 316 313 308 305 320 312 307 309 309 306 307 308 307 309 309 310 309 308 311 310 310 310 309 311 309 309 308 308 310 309 310 312 308 308 308 310 310 309 309
323 323 322 321 321 320 317 310 307 312 321 312 307 310 309 309 309 307 308 307 307 309 308 308 307 309 308 308 307 309 311 309 306 307 312 310 309 314 308 309 309 308 308 308 309
321 321 320 321 318 320 316 306 320 323 314 312 309 309 308 308 309 307 309 309 309 310 310 307 308 308 307 310 309 310 310 311 310 311 315 307 310 312 309 308 307 308 307 307 305
318 319 319 320 319 318 319 321 324 320 314 311 311 310 313 309 310 309 307 307 306 307 306 308 314 308 307 309 309 308 310 312 311 312 313 307 310 312 307 308 307 305 304 302 303
312 315 317 319 319 317 319 322 322 322 318 320 319 320 318 311 311 310 306 307 307 305 311 308 310 307 307 308 309 309 311 310 311 305 307 309 309 309 311 308 306 306 304 303 303
308 313 314 315 318 315 320 322 318 318 316 314 321 317 317 310 310 309 309 307 308 305 306 309 311 307 306 305 306 308 307 311 309 314 314 311 311 312 311 309 307 307 305 303 301
306 308 309 313 316 313 319 318 318 315 315 318 319 320 318 318 313 316 315 311 308 309 305 308 310 311 307 308 311 307 308 307 308 312 316 317 315 311 312 312 307 306 306 305 301
306 308 309 314 315 314 316 314 315 315 314 318 316 318 318 317 317 317 318 317 307 308 311 308 312 316 314 310 306 306 308 309 313 313 311 314 315 311 312 311 310 309 303 302 301
306 305 309 312 314 313 312 313 314 315 315 315 317 316 315 316 318 316 316 314 312 313 314 311 315 319 318 312 310 312 313 310 312 312 314 316 315 312 311 310 310 306 306 304 306
302 304 308 310 311 313 312 312 313 312 314 314 315 314 315 316 315 315 314 312 307 310 311 313 316 318 318 315 311 311 309 311 314 316 315 314 313 311 310 311 311 310 307 306 306
300 302 302 307 308 310 310 310 310 310 310 310 313 313 313 314 313 312 307 306 306 305 304 304 309 311 311 307 308 310 311 312 314 314 314 314 312 311 310 310 310 308 306 303 301
297 299 299 300 300 305 309 308 309 308 310 310 311 303 302 305 304 304 298 299 300 301 298 299 302 305 303 303 305 309 307 309 310 310 312 314 315 311 304 302 299 301 299 298 298
294 296 297 298 298 300 302 304 304 301 303 303 298 298 299 299 296 295 295 295 296 296 295 296 295 293 299 298 299 302 303 305 307 308 309 311 303 300 295 296 294 298 296 296 296

GFSSW_925_thetae_048.txt.gz
Theta_e
311 311 311 311 311 311 311 312 312 311 311 311 310 309 308 308 310 311 311 312 313 313 313 313 314 314 314 314 312 308 312 313 314 314 316 313 313 311 310 312 310 309 310 309 310
310 311 311 310 310 310 310 311 311 311 311 311 311 310 308 309 311 312 311 312 313 313 314 313 312 313 312 315 313 311 308 310 310 311 314 313 312 313 313 312 310 310 308 308 310
310 309 309 308 308 308 307 307 308 309 310 311 311 310 308 309 309 309 316 313 313 314 314 314 313 313 314 315 315 311 313 310 312 311 312 313 311 311 312 311 308 311 310 306 308
310 310 310 311 311 310 309 308 307 306 306 308 310 310 308 311 310 311 315 314 314 313 314 312 311 313 313 315 313 316 313 312 314 315 314 313 310 312 310 314 311 307 308 305 304
312 313 314 315 316 316 316 311 308 308 306 304 307 309 309 310 308 312 312 314 314 313 313 310 312 312 314 311 313 315 314 314 312 312 311 310 311 311 311 311 307 306 305 305 304
314 315 317 318 319 319 319 317 310 308 309 306 304 307 311 308 311 311 313 314 314 312 311 310 310 310 312 313 313 312 312 311 310 311 311 313 314 310 310 308 308 306 305 304 304
316 318 319 319 320 320 320 316 313 311 307 308 304 306 312 306 310 312 313 312 312 312 309 311 312 313 312 313 311 311 311 308 308 309 310 308 312 309 311 310 308 307 305 305 303
317 319 319 320 320 321 320 315 313 311 309 307 305 308 305 307 310 311 311 310 310 310 311 311 311 311 312 311 308 309 308 309 309 309 310 311 310 310 307 308 308 306 304 303 304
319 319 320 320 321 321 319 316 310 309 308 307 309 309 306 309 311 311 311 310 309 310 310 311 311 309 310 308 307 306 307 306 306 307 309 310 310 309 309 309 307 308 309 306 306
319 320 321 321 321 320 319 312 311 312 312 314 313 309 308 310 311 311 310 310 309 308 309 309 306 308 306 306 308 308 307 306 306 308 308 309 308 308 309 308 308 308 309 309 309
320 321 321 321 321 319 316 309 306 307 307 308 310 307 308 310 312 309 309 310 308 307 308 308 307 308 309 307 308 307 305 305 305 306 308 308 308 308 308 309 309 309 309 309 308
321 321 321 321 321 319 312 307 306 305 307 306 304 306 307 311 311 310 309 310 309 309 307 308 308 307 307 306 308 308 308 308 308 308 306 307 308 309 308 308 309 310 310 310 309
322 321 321 321 321 319 311 308 308 309 306 307 306 305 306 308 306 309 307 307 309 308 308 309 309 308 308 308 308 307 308 309 308 307 306 306 308 308 307 307 309 309 309 309 307
324 324 322 322 320 318 311 313 307 308 311 310 307 308 308 308 308 307 307 308 309 309 307 308 307 308 308 309 308 309 307 307 308 309 310 308 311 310 309 306 307 307 307 305 305
324 324 322 322 321 318 314 313 308 305 327 313 307 308 308 307 307 307 306 308 308 308 307 308 308 309 309 309 307 309 308 308 308 308 308 308 308 310 307 308 307 307 306 306 304
321 321 322 321 321 317 317 313 307 316 327 314 307 309 309 308 308 306 307 306 306 308 307 307 306 307 307 307 306 307 309 307 305 306 311 308 309 313 307 307 308 307 306 305 305
320 321 320 321 318 318 317 313 321 323 316 312 308 309 307 307 309 307 309 309 309 311 309 307 308 307 307 309 307 308 308 311 310 311 314 307 309 312 310 308 307 307 307 305 302
318 319 319 320 318 317 318 320 324 321 319 314 311 310 313 309 311 308 307 307 306 307 305 311 316 308 305 308 309 307 309 313 314 315 315 306 309 313 307 306 305 304 303 302 302
312 312 316 318 319 318 319 323 321 322 320 320 320 321 319 313 311 310 306 309 309 306 311 308 310 307 305 307 307 307 310 309 312 310 310 311 308 310 311 310 305 304 304 303 302
306 311 313 314 318 316 320 321 317 316 317 316 321 317 317 315 312 310 311 307 308 305 306 310 313 307 306 305 306 307 306 311 309 314 315 312 312 313 312 311 307 306 305 303 302
304 306 307 312 316 314 320 317 316 315 316 318 319 318 317 316 312 315 315 310 307 309 304 307 308 314 307 306 308 306 308 307 308 311 315 317 315 312 312 312 310 306 306 305 303
305 306 306 312 315 314 315 314 313 314 314 316 318 319 318 317 317 318 318 315 310 308 312 308 312 315 314 310 306 307 310 310 314 315 313 314 315 311 309 310 310 310 305 302 301
304 305 309 312 312 312 311 311 312 312 313 315 316 316 315 317 317 315 313 312 310 312 315 312 314 318 316 312 308 311 310 309 311 312 314 315 314 311 310 309 308 303 302 301 299
302 304 305 309 309 311 311 311 311 310 312 312 314 313 314 315 314 315 314 311 305 308 310 311 313 316 317 314 310 312 310 308 309 310 312 314 314 311 310 310 305 300 298 297 297
299 301 301 306 305 307 309 310 310 310 310 310 310 312 312 313 312 311 306 303 303 303 303 303 305 308 305 304 305 306 304 303 304 305 308 307 307 306 300 296 295 298 296 296 295
296 298 299 299 299 302 305 306 306 306 307 308 309 308 304 308 305 305 299 299 299 298 296 297 298 298 298 298 298 300 299 298 299 300 301 302 305 294 294 293 293 296 296 294 293
293 295 296 296 297 298 299 302 301 300 300 300 298 300 299 300 296 295 295 295 295 295 294 295 294 287 296 296 294 293 293 294 295 296 296 301 295 293 292 292 291 295 293 292 291